This is the latest recevied weather packets stored in our database for station/object K9MWD. If no packets are shown the sender has not sent any weather packets the latest 10 day(s).
| Time | Temp. | Humidity | Pressure | Rain* | Wind** | Luminosity | Snow |
|---|---|---|---|---|---|---|---|
| 1787791056 | 36.11° C | 41% | 1011.8 hPa | 0 mm | - | 25 W/m² | - |
| 1787790753 | 36.11° C | 41% | 1012.1 hPa | 0 mm | - | 30 W/m² | - |
| 1787790452 | 36.11° C | 41% | 1012.1 hPa | 0 mm | - | 36 W/m² | - |
| 1787790148 | 36.67° C | 40% | 1012.1 hPa | 0 mm | - | 44 W/m² | - |
| 1787789844 | 36.67° C | 40% | 1012.2 hPa | 0 mm | - | 56 W/m² | - |
| 1787789544 | 36.11° C | 40% | 1012.2 hPa | 0 mm | - | 66 W/m² | - |
| 1787789242 | 36.67° C | 40% | 1012.3 hPa | 0 mm | - | 61 W/m² | - |
| 1787788938 | 36.67° C | 40% | 1012.3 hPa | 0 mm | - | 57 W/m² | - |
| 1787788635 | 36.67° C | 39% | 1012.4 hPa | 0 mm | - | 63 W/m² | - |
| 1787788335 | 36.67° C | 40% | 1012.4 hPa | 0 mm | - | 72 W/m² | - |
| 1787788031 | 36.67° C | 40% | 1012.5 hPa | 0 mm | - | 56 W/m² | - |
| 1787787726 | 36.67° C | 38% | 1012.5 hPa | 0 mm | - | 54 W/m² | - |
| 1787787424 | 37.22° C | 38% | 1012.1 hPa | 0 mm | - | 67 W/m² | - |
| 1787787119 | 37.78° C | 37% | 1012.3 hPa | 0 mm | - | 126 W/m² | - |
| 1787786819 | 37.78° C | 36% | 1012.4 hPa | 0 mm | - | 110 W/m² | - |
| 1787786514 | 37.78° C | 36% | 1012.2 hPa | 0 mm | - | 101 W/m² | - |
| 1787786209 | 37.22° C | 37% | 1012.1 hPa | 0 mm | - | 160 W/m² | - |
| 1787785905 | 37.22° C | 37% | 1012 hPa | 0 mm | - | 175 W/m² | - |
| 1787785600 | 37.78° C | 36% | 1012.1 hPa | 0 mm | - | 191 W/m² | - |
| 1787785296 | 38.33° C | 36% | 1012 hPa | 0 mm | - | 208 W/m² | - |
| 1787784994 | 37.78° C | 37% | 1012.4 hPa | 0 mm | - | 222 W/m² | - |
| 1787784693 | 37.78° C | 37% | 1012.3 hPa | 0 mm | - | 238 W/m² | - |
| 1787784393 | 37.78° C | 36% | 1012.3 hPa | 0 mm | - | 258 W/m² | - |
| 1787784087 | 37.78° C | 36% | 1012.6 hPa | 0 mm | - | 277 W/m² | - |
* Rain latest hour (hover to see other rain measurements)
** Current wind speed in m/s (hover to see current wind gust speed)